�N����,����,�~����,�C��,���x,�C��,����,���ϕ���,�ő�u�ԕ���,�ő厞����,���˗�,�I�_���x,�n�����x,�ő啗���N��,DTYPE
"21/07/10","00:10",0.0,24.8,91.1,1003.8,345.9,0.6,1.1,327.1,0.00,23.3,25.0,"00:07:44",1
"21/07/10","00:20",0.0,24.6,91.3,1003.8,332.7,1.0,1.6,340.4,0.00,23.1,25.1,"00:14:16",1
"21/07/10","00:30",0.0,24.6,91.6,1004.1,284.0,0.7,1.3,318.6,0.00,23.2,25.0,"00:28:00",1
"21/07/10","00:40",0.0,24.5,91.8,1003.8,163.1,0.2,0.6,178.2,0.00,23.1,25.1,"00:33:04",1
"21/07/10","00:50",0.0,24.6,92.1,1004.1,293.8,0.5,1.4,304.6,0.00,23.3,25.1,"00:46:32",1
"21/07/10","01:00",0.0,24.6,92.2,1004.3,357.8,0.6,1.3,327.0,0.00,23.3,25.2,"00:56:32",1
"21/07/10","01:10",0.0,24.5,92.4,1003.8,60.1,0.3,1.1,304.5,0.00,23.2,24.9,"01:01:28",1
"21/07/10","01:20",0.0,24.4,92.5,1004.1,325.5,0.7,1.6,327.5,0.00,23.1,25.1,"01:17:12",1
"21/07/10","01:30",0.0,24.3,92.7,1003.6,315.2,0.7,1.4,300.2,0.00,23.1,25.0,"01:24:16",1
"21/07/10","01:40",0.0,24.3,92.9,1003.8,300.0,0.2,0.6,265.4,0.00,23.1,25.3,"01:31:28",1
"21/07/10","01:50",0.0,24.2,93.0,1003.8,303.3,0.5,1.0,320.8,0.00,23.0,25.0,"01:48:40",1
"21/07/10","02:00",0.0,24.3,93.1,1003.8,338.5,0.7,1.0,336.6,0.00,23.2,25.1,"01:57:12",1
"21/07/10","02:10",0.0,24.4,93.3,1004.1,341.3,0.8,1.4,347.2,0.00,23.3,25.0,"02:06:32",1
"21/07/10","02:20",0.0,24.3,93.4,1004.3,338.7,0.8,1.2,339.4,0.00,23.2,25.0,"02:12:24",1
"21/07/10","02:30",0.0,24.3,93.5,1004.1,332.1,0.8,1.3,341.6,0.00,23.2,24.9,"02:21:04",1
"21/07/10","02:40",0.0,24.3,93.6,1004.1,320.9,0.5,1.0,333.3,0.00,23.2,24.9,"02:38:08",1
"21/07/10","02:50",0.0,24.3,93.7,1004.1,305.4,0.6,1.1,314.6,0.00,23.3,25.0,"02:40:08",1
"21/07/10","03:00",0.0,24.3,93.7,1004.1,345.7,0.7,1.0,346.5,0.00,23.3,24.9,"02:51:04",1
"21/07/10","03:10",0.0,24.2,93.9,1004.1,288.5,0.7,1.1,309.8,0.00,23.2,24.9,"03:01:28",1
"21/07/10","03:20",0.0,24.2,93.9,1004.1,295.8,0.7,1.1,336.6,0.00,23.2,24.9,"03:17:28",1
"21/07/10","03:30",1.2,24.2,94.1,1004.1,290.5,0.3,1.2,347.0,0.00,23.2,24.8,"03:21:44",1
"21/07/10","03:40",0.2,24.3,94.2,1004.5,315.9,0.7,1.4,341.5,0.00,23.3,24.8,"03:38:16",1
"21/07/10","03:50",0.2,24.3,94.3,1004.5,298.2,0.8,1.8,352.6,0.00,23.4,24.8,"03:49:12",1
"21/07/10","04:00",0.0,24.2,94.3,1004.3,336.9,0.3,1.8,341.4,0.00,23.3,24.7,"03:50:32",1
"21/07/10","04:10",0.0,24.1,94.4,1004.3,272.2,0.2,0.5,274.1,0.00,23.2,24.7,"04:04:32",1
"21/07/10","04:20",0.0,23.8,94.4,1004.5,273.5,0.3,0.6,265.1,0.00,22.9,24.9,"04:13:36",1
"21/07/10","04:30",0.0,23.7,94.5,1004.5,334.7,0.3,0.8,345.2,0.00,22.8,24.7,"04:28:24",1
"21/07/10","04:40",0.0,23.7,94.7,1004.8,358.5,0.7,1.3,30.9,0.00,22.8,24.8,"04:36:08",1
"21/07/10","04:50",0.0,23.5,94.7,1005.0,347.0,0.5,1.0,347.2,0.00,22.6,24.7,"04:40:16",1
"21/07/10","05:00",0.0,23.4,94.9,1005.0,310.8,0.6,1.2,341.3,0.00,22.6,24.8,"04:52:40",1
"21/07/10","05:10",0.0,23.5,94.9,1005.0,320.1,0.6,1.0,338.8,0.00,22.7,24.9,"05:09:20",1
"21/07/10","05:20",0.0,23.6,95.0,1005.0,287.4,0.5,1.1,344.0,0.00,22.8,24.8,"05:11:44",1
"21/07/10","05:30",0.0,23.6,95.0,1005.2,282.5,0.3,0.8,265.4,0.00,22.8,24.7,"05:25:04",1
"21/07/10","05:40",0.0,23.8,95.1,1005.5,330.2,0.6,1.1,345.6,0.00,23.0,24.7,"05:30:02",1
"21/07/10","05:50",0.0,23.8,95.1,1005.2,358.1,0.7,1.3,15.7,0.00,23.0,24.7,"05:47:28",1
"21/07/10","06:00",0.0,24.0,95.2,1005.2,349.1,0.6,1.0,354.9,0.01,23.2,24.7,"05:57:20",1
"21/07/10","06:10",0.0,24.2,95.2,1005.2,317.7,0.3,0.6,341.0,0.01,23.4,24.8,"06:07:44",1
"21/07/10","06:20",0.0,24.3,95.2,1005.2,273.7,0.2,0.8,321.9,0.03,23.5,24.7,"06:10:24",1
"21/07/10","06:30",0.0,24.5,95.2,1005.2,277.1,0.2,1.0,340.7,0.03,23.7,24.7,"06:28:40",1
"21/07/10","06:40",0.0,24.7,95.2,1005.2,336.7,0.7,1.3,343.3,0.04,23.9,24.7,"06:31:36",1
"21/07/10","06:50",0.0,24.7,95.2,1005.7,306.2,0.3,0.6,298.5,0.02,23.9,24.7,"06:43:20",1
"21/07/10","07:00",0.0,24.7,95.2,1005.7,261.0,0.5,0.9,299.5,0.02,23.9,24.8,"06:51:04",1
"21/07/10","07:10",0.0,24.7,95.2,1005.7,241.8,0.2,0.8,145.5,0.00,23.9,24.8,"07:08:56",1
"21/07/10","07:20",0.0,24.9,95.3,1006.0,209.1,0.3,0.9,308.1,0.01,24.1,24.7,"07:19:28",1
"21/07/10","07:30",0.0,25.0,95.3,1005.7,276.9,0.3,1.0,312.2,0.03,24.2,24.7,"07:21:20",1
"21/07/10","07:40",0.0,25.4,95.3,1005.7,236.3,0.2,0.8,248.7,0.10,24.6,24.6,"07:31:04",1
"21/07/10","07:50",0.0,25.9,95.4,1005.5,219.1,0.2,0.8,131.3,0.13,25.1,24.7,"07:47:04",1
"21/07/10","08:00",0.0,25.8,95.1,1005.2,0.5,0.6,1.9,2.9,0.08,25.0,24.7,"07:55:52",1
"21/07/10","08:10",0.0,26.3,95.3,1005.7,317.0,0.7,1.8,320.9,0.15,25.5,24.5,"08:01:20",1
"21/07/10","08:20",0.0,26.3,94.9,1005.5,284.7,0.1,0.5,144.9,0.06,25.5,24.7,"08:18:48",1
"21/07/10","08:30",0.0,26.3,94.9,1005.2,132.3,0.5,1.1,132.2,0.11,25.5,24.8,"08:24:08",1
"21/07/10","08:40",0.0,26.9,95.0,1005.2,122.6,0.3,1.3,117.3,0.17,26.1,24.7,"08:38:56",1
"21/07/10","08:50",0.0,26.6,94.6,1005.5,117.4,0.6,1.8,139.8,0.09,25.7,24.7,"08:44:08",1
"21/07/10","09:00",0.0,25.8,93.9,1005.5,174.7,0.7,2.0,152.9,0.08,24.8,24.9,"08:58:24",1
"21/07/10","09:10",0.0,26.2,94.6,1005.2,201.0,1.1,2.0,214.9,0.08,25.3,24.9,"09:02:16",1
"21/07/10","09:20",0.0,26.7,94.2,1005.0,130.5,0.5,1.3,102.6,0.12,25.7,24.9,"09:13:44",1
"21/07/10","09:30",0.0,27.1,94.1,1005.0,69.1,0.3,1.1,9.9,0.16,26.1,25.0,"09:26:40",1
"21/07/10","09:40",0.0,27.2,93.4,1004.5,36.1,0.7,1.7,14.7,0.17,26.1,24.9,"09:31:52",1
"21/07/10","09:50",0.0,27.9,92.8,1005.0,43.4,0.5,1.7,31.3,0.28,26.7,24.9,"09:46:08",1
"21/07/10","10:00",0.0,28.0,91.8,1006.0,228.7,0.3,1.2,49.7,0.14,26.6,24.8,"09:51:36",1
"21/07/10","10:10",0.0,27.3,91.0,1005.7,197.9,0.8,2.1,206.6,0.09,25.7,24.9,"10:08:16",1
"21/07/10","10:20",0.0,27.7,90.8,1005.0,331.0,0.5,1.3,233.2,0.13,26.1,25.0,"10:11:44",1
"21/07/10","10:30",0.0,28.9,88.2,1005.2,113.1,0.6,1.8,122.5,0.44,26.8,25.0,"10:24:00",1
"21/07/10","10:40",0.0,29.5,85.7,1005.7,90.6,0.8,1.9,130.2,0.36,26.9,25.0,"10:32:24",1
"21/07/10","10:50",0.0,29.4,82.0,1006.0,183.3,1.2,1.9,130.5,0.21,26.0,25.1,"10:41:20",1
"21/07/10","11:00",0.0,29.5,80.3,1005.7,221.4,0.8,2.1,160.0,0.19,25.8,25.3,"10:57:12",1
"21/07/10","11:10",0.0,29.6,79.6,1005.5,194.3,1.5,2.8,207.7,0.24,25.7,25.1,"11:05:20",1
"21/07/10","11:20",0.0,29.7,78.6,1005.5,202.2,1.0,1.7,193.0,0.22,25.6,25.2,"11:13:04",1
"21/07/10","11:30",0.0,30.1,75.6,1005.7,234.8,1.3,3.3,238.5,0.32,25.4,25.5,"11:27:44",1
"21/07/10","11:40",0.0,30.9,73.5,1005.2,230.2,1.2,3.1,236.1,0.40,25.6,25.2,"11:31:28",1
"21/07/10","11:50",0.0,30.5,71.8,1005.5,237.8,1.7,4.4,211.8,0.27,24.9,25.4,"11:44:00",1
"21/07/10","12:00",0.0,30.6,71.8,1005.2,249.3,1.6,4.0,210.6,0.41,25.0,25.5,"11:58:40",1
"21/07/10","12:10",0.0,31.7,70.3,1005.2,243.7,1.1,3.1,344.2,0.51,25.7,25.5,"12:09:20",1
"21/07/10","12:20",0.0,32.5,68.1,1005.7,271.4,1.0,3.3,303.8,0.58,25.9,25.5,"12:11:44",1
"21/07/10","12:30",0.0,32.5,66.8,1006.0,234.0,1.7,4.1,243.1,0.58,25.6,25.7,"12:27:12",1
"21/07/10","12:40",0.0,31.6,66.5,1006.0,274.4,1.5,4.0,235.0,0.27,24.6,25.7,"12:30:56",1
"21/07/10","12:50",0.0,31.0,67.5,1005.2,262.2,1.2,3.2,237.9,0.22,24.3,25.9,"12:46:32",1
"21/07/10","13:00",0.0,30.9,68.6,1005.5,241.9,1.2,3.6,233.3,0.23,24.5,25.7,"12:59:36",1
"21/07/10","13:10",0.0,30.9,69.4,1005.5,247.8,1.3,3.4,222.6,0.20,24.7,25.6,"13:03:52",1
"21/07/10","13:20",0.0,30.5,69.0,1005.0,255.4,1.6,4.5,222.9,0.21,24.2,25.7,"13:14:40",1
"21/07/10","13:30",0.0,30.6,69.3,1005.0,244.0,1.6,3.1,227.8,0.23,24.4,25.9,"13:26:40",1
"21/07/10","13:40",0.0,31.3,69.4,1005.0,304.1,1.0,3.6,343.1,0.35,25.1,25.9,"13:35:52",1
"21/07/10","13:50",0.0,31.6,68.4,1005.2,259.8,1.0,3.2,241.8,0.36,25.1,26.2,"13:44:32",1
"21/07/10","14:00",0.0,31.5,68.0,1005.5,277.2,1.1,3.3,240.2,0.28,24.9,26.1,"13:51:28",1
"21/07/10","14:10",0.0,31.3,68.8,1005.2,325.7,1.5,3.1,356.5,0.29,24.9,26.0,"14:02:00",1
"21/07/10","14:20",0.0,31.4,67.8,1005.0,310.1,1.3,3.1,245.4,0.35,24.8,26.1,"14:11:04",1
"21/07/10","14:30",0.0,31.4,67.5,1005.0,292.7,1.3,2.7,263.1,0.31,24.7,26.0,"14:26:40",1
"21/07/10","14:40",0.0,31.1,66.3,1004.8,281.8,1.3,3.6,319.4,0.27,24.1,26.2,"14:36:32",1
"21/07/10","14:50",0.0,31.4,67.7,1004.8,284.9,0.8,2.6,328.6,0.23,24.7,26.2,"14:40:08",1
"21/07/10","15:00",0.0,31.0,67.2,1004.8,320.6,1.2,3.6,346.0,0.20,24.2,26.2,"14:59:20",1
"21/07/10","15:10",0.0,31.3,67.5,1004.8,315.3,1.1,3.1,336.9,0.26,24.6,26.2,"15:03:04",1
"21/07/10","15:20",0.0,31.7,66.8,1004.8,263.3,1.0,2.0,336.1,0.33,24.8,26.2,"15:13:28",1
"21/07/10","15:30",0.0,31.7,65.9,1005.2,316.0,1.2,2.8,335.1,0.24,24.6,26.2,"15:27:44",1
"21/07/10","15:40",0.0,31.2,66.5,1004.5,309.8,1.3,3.3,334.9,0.19,24.3,26.3,"15:33:44",1
"21/07/10","15:50",0.0,31.0,67.3,1004.8,277.6,1.0,2.1,253.0,0.16,24.3,26.5,"15:42:08",1
"21/07/10","16:00",0.0,30.9,68.4,1004.5,306.5,1.1,3.2,348.0,0.16,24.4,26.6,"15:52:00",1
"21/07/10","16:10",0.0,30.6,68.0,1004.5,313.1,1.0,2.2,282.6,0.14,24.1,26.4,"16:09:48",1
"21/07/10","16:20",0.0,30.5,68.9,1004.8,298.6,1.0,2.2,347.6,0.12,24.2,26.5,"16:16:08",1
"21/07/10","16:30",0.0,30.3,69.6,1004.3,308.6,0.7,2.1,345.5,0.09,24.2,26.4,"16:28:40",1
"21/07/10","16:40",0.0,30.5,69.4,1004.3,274.3,0.7,2.5,234.6,0.14,24.3,26.6,"16:30:02",1
"21/07/10","16:50",0.0,30.7,69.3,1004.3,294.4,0.7,1.9,244.2,0.13,24.5,26.4,"16:40:08",1
"21/07/10","17:00",0.0,30.4,69.2,1004.1,284.2,0.7,1.9,305.7,0.10,24.2,26.6,"16:56:24",1
"21/07/10","17:10",0.2,30.6,69.8,1003.8,327.2,0.7,1.4,337.0,0.11,24.5,26.6,"17:04:00",1
"21/07/10","17:20",0.0,30.5,70.0,1004.3,327.4,1.2,2.9,353.7,0.10,24.4,26.5,"17:18:24",1
"21/07/10","17:30",0.0,30.2,70.7,1003.8,316.4,0.8,1.9,332.9,0.06,24.3,26.6,"17:24:56",1
"21/07/10","17:40",0.0,30.0,71.1,1004.1,295.3,1.0,2.0,239.3,0.08,24.2,26.7,"17:38:24",1
"21/07/10","17:50",0.0,29.9,71.5,1003.8,300.4,0.8,2.1,351.0,0.07,24.2,26.4,"17:42:48",1
"21/07/10","18:00",0.0,30.0,72.3,1004.1,330.4,0.8,1.8,356.4,0.07,24.5,26.6,"17:54:24",1
"21/07/10","18:10",0.0,29.6,73.0,1003.6,335.5,1.2,2.4,341.0,0.04,24.3,26.6,"18:04:08",1
"21/07/10","18:20",0.0,29.4,74.0,1003.6,315.2,1.0,2.6,346.7,0.01,24.3,26.5,"18:12:56",1
"21/07/10","18:30",0.0,29.0,74.7,1003.4,285.1,0.7,1.3,284.8,0.00,24.1,26.6,"18:29:44",1
"21/07/10","18:40",0.0,28.9,75.3,1003.1,250.0,0.8,1.8,253.7,0.00,24.1,26.7,"18:38:16",1
"21/07/10","18:50",0.0,28.7,76.3,1003.4,243.3,0.7,2.1,225.2,0.00,24.2,26.7,"18:40:16",1
"21/07/10","19:00",0.0,28.5,76.7,1003.1,262.8,1.2,2.8,236.3,0.00,24.0,26.6,"18:55:04",1
"21/07/10","19:10",0.0,28.5,77.2,1003.8,343.8,1.0,1.8,340.4,0.00,24.2,26.6,"19:05:28",1
"21/07/10","19:20",0.0,28.2,77.7,1003.6,325.5,0.5,1.4,0.6,0.00,24.0,26.6,"19:10:24",1
"21/07/10","19:30",0.0,27.9,78.3,1004.1,318.9,0.5,1.2,348.4,0.00,23.8,26.4,"19:23:04",1
"21/07/10","19:40",0.0,27.9,79.4,1003.6,349.4,0.8,1.9,333.9,0.00,24.0,26.5,"19:36:56",1
"21/07/10","19:50",0.0,27.4,80.3,1004.3,310.8,0.7,1.6,344.9,0.00,23.7,26.5,"19:41:36",1
"21/07/10","20:00",0.0,27.3,81.0,1004.5,314.7,1.0,1.7,259.4,0.00,23.8,26.6,"19:51:20",1
"21/07/10","20:10",0.0,27.2,81.6,1004.8,340.0,1.5,2.0,337.0,0.00,23.8,26.6,"20:07:28",1
"21/07/10","20:20",0.0,27.0,82.3,1004.8,321.2,1.0,1.7,344.3,0.00,23.8,26.4,"20:12:16",1
"21/07/10","20:30",0.0,26.8,83.0,1004.8,320.0,0.8,2.1,344.5,0.00,23.7,26.5,"20:29:44",1
"21/07/10","20:40",0.0,26.7,83.5,1004.5,297.6,0.7,1.4,316.1,0.00,23.7,26.3,"20:30:56",1
"21/07/10","20:50",0.0,26.7,84.1,1005.0,316.4,1.2,2.6,343.1,0.00,23.8,26.4,"20:47:04",1
"21/07/10","21:00",0.0,26.5,84.6,1005.2,309.2,1.1,1.9,333.8,0.00,23.7,26.4,"20:51:44",1
"21/07/10","21:10",0.0,26.4,85.0,1005.7,319.8,1.1,2.0,334.5,0.00,23.7,26.4,"21:07:04",1
"21/07/10","21:20",0.0,26.4,85.2,1005.5,338.3,1.6,2.6,336.8,0.00,23.8,26.3,"21:11:44",1
"21/07/10","21:30",0.0,26.0,85.1,1005.5,340.1,1.3,2.2,339.4,0.00,23.3,26.3,"21:20:48",1
"21/07/10","21:40",0.0,25.8,84.9,1005.7,301.6,1.3,2.7,331.5,0.00,23.1,26.3,"21:36:24",1
"21/07/10","21:50",0.0,25.8,84.7,1006.0,310.3,1.1,2.0,341.2,0.00,23.1,26.3,"21:44:40",1
"21/07/10","22:00",0.0,25.7,84.7,1006.0,325.6,1.1,2.6,328.1,0.00,23.0,26.4,"21:54:40",1
"21/07/10","22:10",0.0,25.7,84.7,1006.4,339.4,1.2,2.0,331.9,0.00,23.0,26.4,"22:00:24",1
"21/07/10","22:20",0.0,25.7,84.9,1006.0,357.6,0.6,1.3,2.6,0.00,23.0,26.4,"22:15:28",1
"21/07/10","22:30",0.0,25.6,85.1,1006.4,309.2,0.6,0.9,328.7,0.00,22.9,26.2,"22:21:36",1
"21/07/10","22:40",0.0,25.6,85.5,1006.4,322.4,1.2,2.2,323.4,0.00,23.0,26.1,"22:38:32",1
"21/07/10","22:50",0.0,25.7,85.7,1006.4,342.3,1.7,3.6,333.8,0.00,23.2,26.2,"22:40:16",1
"21/07/10","23:00",0.0,25.6,85.7,1006.2,321.4,1.0,2.2,329.3,0.00,23.1,26.1,"22:50:40",1
"21/07/10","23:10",0.0,25.5,85.9,1006.7,289.9,1.0,1.8,348.9,0.00,23.0,26.2,"23:06:00",1
"21/07/10","23:20",0.0,25.5,86.0,1006.4,328.1,1.1,2.5,343.2,0.00,23.0,26.1,"23:11:20",1
"21/07/10","23:30",0.0,25.4,86.1,1006.4,314.1,0.7,1.2,327.8,0.00,22.9,26.0,"23:26:08",1
"21/07/10","23:40",0.4,25.3,86.5,1006.7,323.3,0.7,1.6,319.6,0.00,22.9,26.0,"23:36:48",1
"21/07/10","23:50",1.4,25.1,87.3,1006.9,350.6,1.1,2.1,11.2,0.00,22.9,25.9,"23:44:48",1
"21/07/10","24:00",0.8,24.8,88.2,1006.7,353.4,1.2,2.7,357.7,0.00,22.8,25.8,"23:50:56",1
